Regional Weather Roundup
Issued by NWS Cleveland, OH

Home | Current Version | Previous Version | Graphics & Text | Print | Product List | Glossary On
Versions: 1 2 3 4 5 6 7 8 9 10 11 12 13 14 15 16 17 18 19 20 21 22 23 24 25 26 27 28 29 30 31 32 33 34 35 36 37 38 39 40 41 42 43 44 45 46 47 48 49 50
984
ASUS41 KCLE 271110
RWRCLE
OHIO REGIONAL WEATHER ROUNDUP
NATIONAL WEATHER SERVICE CLEVELAND, OH
700 AM EDT THU JUL 27 2017

NOTE: "FAIR" INDICATES FEW OR NO CLOUDS BELOW 12,000 FEET WITH NO
SIGNIFICANT WEATHER AND/OR OBSTRUCTIONS TO VISIBILITY.

OHZ001>008-015>018-024>027-034-035-043-044-271200-
   NORTHWEST OHIO

CITY           SKY/WX    TMP DP  RH WIND       PRES   REMARKS
DEFIANCE       CLOUDY    68  64  87 S3        29.95S
FINDLAY        MOCLDY    69  62  78 S3        29.96R
TOLEDO EXPRESS CLOUDY    67  66  97 CALM      29.95S
TOLEDO EXEC    CLOUDY    68  65  90 CALM      29.97R
LIMA           MOCLDY    68  66  93 CALM      29.97R
$$

OHZ009>014-019>023-028>033-038-089-271200-
   NORTHEAST OHIO

CITY           SKY/WX    TMP DP  RH WIND       PRES   REMARKS
CLE-HOPKINS    MOCLDY    68  63  84 S5        29.99S
CLE-LAKEFRONT  CLOUDY    69  63  81 S8        29.96S
CUY CO. ARPT   MOCLDY    68  64  88 CALM      29.98
LORAIN-ELYRIA  CLOUDY    63  58  83 CALM      29.98S
ASHTABULA      CLOUDY    65  65 100 CALM      30.00F
AKRON-CANTON   MOCLDY    65  61  87 S3        30.00F
WOOSTER        PTCLDY    60  60 100 CALM      30.00S FOG
MANSFIELD      MOCLDY    65  63  93 SE3       29.99S
YOUNGSTOWN     CLOUDY    63  62  97 E5        30.00S
$$

OHZ042-051>053-060>062-070>072-077>081-271200-
  SOUTHWEST OHIO

CITY           SKY/WX    TMP DP  RH WIND       PRES   REMARKS
CINC-COVINGTON TSTM      73  72  96 VRB3      29.98R FOG
CINC-LUNKEN    CLOUDY    71  71 100 CALM      29.96S
HAMILTON       CLOUDY    70  69  97 CALM      29.97R
DAYTON         CLOUDY    69  66  90 CALM      29.98R
WRIGHT-PAT AFB CLOUDY    70  67  91 NE3       29.97R
DAYTON GENERAL CLOUDY    71  66  84 S3        29.97R
WILMINGTON     CLOUDY    69  66  90 S3        29.97R
$$

OHZ036-037-039>041-045>050-054>059-063>069-073>076-082>088-271200-
  CENTRAL AND SOUTHEAST OHIO

CITY           SKY/WX    TMP DP  RH WIND       PRES   REMARKS
COLUMBUS       CLOUDY    71  64  78 CALM      29.98R
OSU AIRPORT    CLOUDY    68  66  93 CALM      29.98S
BOLTON FIELD   NOT AVBL
RICKENBACK AFB MOCLDY    66  65  97 NE3       29.97S
NEWARK         CLOUDY    65  63  93 CALM      29.98F FOG
MARION         PTCLDY    66  61  84 S6        29.98F
LANCASTER      CLOUDY    67  65  93 S3        29.99R
ZANESVILLE     CLOUDY    64  61  90 CALM      29.99S
NEW PHILLY     NOT AVBL
$$




USA.gov is the U.S. government's official web portal to all federal, state and local government web resources and services.